SCP
0 0 0 0 0 0 0 0 0 0 0 0 0 0 0 0 0 0 0 0 0 0 0 0 0 1 1 1 1 1 2 1 1 1 1 1 1 1 0 0 0 0 0
0 0 0 0 0 0 0 0 0 0 0 0 0 0 0 0 0 0 0 0 0 0 0 0 0 1 1 1 1 2 2 1 1 1 1 1 1 1 0 0 0 1 0
0 0 0 0 0 0 0 0 0 0 0 0 0 0 0 0 0 0 0 0 0 0 0 0 0 1 1 2 2 1 1 1 1 2 1 1 1 1 1 1 1 1 1
1 1 1 1 1 1 0 0 0 0 0 0 0 0 0 0 0 0 0 0 0 0 0 1 1 1 1 1 1 1 2 1 1 1 1 1 1 1 1 1 1 1 0
1 1 1 1 1 1 1 1 1 0 1 0 0 0 0 0 0 0 0 0 0 0 1 0 1 1 1 1 1 2 1 1 1 1 1 1 1 1 1 1 1 1 1
1 1 2 1 1 1 0 0 0 1 0 1 0 0 0 0 0 0 0 0 0 1 1 1 1 1 1 0 1 1 1 1 1 1 1 1 1 1 1 1 1 0 0
0 0 1 1 1 1 1 1 0 0 1 0 0 0 0 0 0 0 0 0 0 1 1 1 1 2 1 1 1 1 1 1 1 1 1 1 1 1 1 1 1 0 0
1 1 1 1 1 1 1 1 1 1 1 0 1 0 0 0 0 0 0 0 0 1 1 1 2 1 1 2 1 1 1 1 1 1 1 1 1 1 1 1 1 1 1
0 0 0 1 1 1 1 1 1 1 1 1 0 1 0 0 0 0 0 0 0 1 1 1 1 1 1 1 1 1 1 0 1 0 1 1 1 1 1 1 1 0 0
0 0 0 0 0 0 1 1 1 1 1 0 1 1 0 1 1 0 0 0 0 0 0 0 1 1 1 1 1 1 1 1 0 0 1 1 1 1 1 1 0 0 0
0 0 0 0 0 0 0 0 0 1 1 1 1 1 1 0 0 0 0 0 0 0 0 0 0 1 1 1 2 1 1 0 1 0 1 1 1 1 1 0 1 1 1
0 0 0 0 0 0 0 0 0 0 0 1 1 1 1 1 0 0 0 0 0 0 0 0 0 0 0 1 1 1 0 0 1 1 1 0 0 0 0 0 1 1 0
0 0 0 0 0 0 0 0 0 0 0 1 0 1 1 1 2 1 0 0 0 0 0 0 0 1 0 1 0 0 0 0 0 0 0 0 0 0 0 0 0 0 0
0 0 0 0 0 0 0 0 0 0 0 0 0 0 1 1 2 2 0 0 0 0 0 0 0 0 0 1 0 0 0 0 0 0 0 0 0 0 0 0 0 0 0
0 0 0 0 0 0 0 0 0 0 0 0 0 0 0 1 1 2 1 0 0 0 0 0 0 0 0 0 0 0 0 0 0 0 0 0 0 0 0 0 0 0 0
0 0 0 0 0 0 0 0 0 0 0 0 0 0 0 0 1 1 0 0 0 0 0 0 0 0 0 0 0 0 0 0 0 0 0 0 0 0 0 0 0 0 0
0 0 0 0 0 0 0 0 0 0 0 0 0 0 0 0 0 1 1 0 0 0 0 0 0 0 0 0 0 0 0 -0 0 0 0 0 0 0 0 0 0 0 0
0 0 0 0 0 0 0 0 0 0 0 0 0 0 0 0 0 0 0 0 0 0 0 0 0 0 0 0 0 0 0 0 0 0 0 0 0 0 0 0 0 0 0
0 0 0 0 0 0 0 0 0 0 0 0 0 0 0 0 0 0 1 0 0 0 0 0 0 0 0 0 0 0 0 0 0 0 0 0 0 0 0 0 0 0 0
0 0 0 0 0 0 0 0 0 0 0 0 0 0 0 0 0 0 0 0 0 0 0 0 0 0 0 0 0 0 0 0 0 0 0 0 0 0 0 0 0 0 0
0 0 0 0 0 0 0 0 0 0 0 0 0 0 0 0 0 0 0 0 0 0 0 0 0 0 0 0 0 0 0 0 0 0 0 0 0 0 0 0 0 0 0
0 0 0 0 0 0 0 0 0 0 0 0 0 0 0 0 0 0 0 0 0 0 0 0 0 0 0 0 0 0 0 0 0 0 0 0 0 0 0 0 0 0 0
0 0 0 0 0 0 0 0 0 0 0 0 0 0 0 0 0 0 0 0 0 0 0 0 0 0 0 0 0 0 0 0 0 0 0 0 0 0 0 0 0 0 0
0 0 0 0 0 0 0 0 0 0 0 0 0 0 0 0 0 0 0 0 0 0 0 0 0 0 0 0 0 0 0 0 0 0 0 0 0 0 0 0 0 0 0
0 0 0 0 0 0 0 0 0 0 0 0 0 -0 -0 -0 0 0 0 0 0 0 0 0 0 0 0 0 0 0 0 0 0 0 0 0 0 0 0 0 0 0 0
0 0 0 0 0 0 0 0 0 0 0 0 -0 0 -0 0 -0 0 0 0 0 0 0 0 0 0 0 0 0 0 0 0 0 0 0 0 0 0 0 0 0 0 0
Wind_Speed_500mb
46 46 47 48 49 48 49 49 51 52 54 53 54 56 52 51 49 52 49 44 45 45 44 45 40 36 32 31 28 31 32 31 32 31 29 25 24 22 20 20 21 22 23
43 44 48 50 52 53 54 55 58 60 60 59 64 63 64 58 59 55 54 55 52 53 52 50 48 43 36 36 30 32 38 37 38 36 33 31 30 27 24 22 23 24 23
39 42 45 47 50 54 57 59 61 64 66 68 69 66 65 63 63 61 61 62 62 60 61 58 51 47 44 42 40 35 34 53 45 43 38 37 35 32 30 27 25 25 26
38 42 45 49 46 48 49 55 57 60 64 67 70 71 70 70 68 65 66 66 67 65 65 65 63 58 56 56 51 45 38 55 50 51 45 42 36 37 36 34 26 24 22
37 37 43 44 45 51 56 56 58 59 63 65 67 68 68 69 71 68 66 73 74 69 65 65 70 64 63 63 60 58 58 53 54 52 50 44 43 42 39 32 31 26 26
36 39 43 47 46 49 55 57 58 62 66 69 73 73 74 70 69 70 72 73 75 78 73 71 69 67 69 69 65 61 62 56 57 54 52 49 46 42 39 33 30 32 47
38 41 45 49 50 52 54 57 60 63 64 67 69 76 77 73 75 73 74 78 78 74 77 78 76 70 73 73 66 64 61 57 58 56 57 52 44 42 44 42 46 51 62
41 47 51 51 50 51 52 46 44 54 60 59 59 60 58 68 72 68 63 71 80 79 79 78 77 74 79 77 70 63 64 61 60 60 60 59 49 50 50 51 51 56 63
30 36 42 45 46 46 50 52 52 50 51 50 48 48 35 30 50 52 50 54 64 65 66 75 79 82 79 81 78 72 69 62 61 62 61 63 58 55 52 53 53 58 66
29 32 32 35 30 37 43 47 45 50 51 52 52 54 53 63 53 51 57 51 49 54 58 58 62 61 68 82 85 83 77 70 67 63 60 61 59 54 55 57 62 67 53
26 26 30 33 38 45 46 47 46 45 47 51 51 55 56 51 55 74 65 73 64 68 61 66 67 73 69 67 62 80 85 82 74 70 66 61 56 56 62 65 68 54 51
29 31 37 39 41 47 50 48 45 46 44 48 50 55 56 59 49 54 60 67 74 75 69 62 66 78 84 79 78 64 74 83 83 76 67 64 60 59 62 65 51 49 50
37 37 39 45 45 46 45 41 40 41 45 46 46 52 57 61 59 59 66 65 66 69 75 80 78 114 101 79 84 87 78 73 74 80 64 67 64 61 61 56 47 46 42
46 46 48 50 50 47 43 33 40 43 40 43 48 52 56 60 64 64 69 74 63 70 70 65 61 65 75 120 102 84 89 82 76 73 65 68 66 63 55 54 49 45 41
54 53 56 57 55 53 51 48 44 42 41 44 46 48 55 59 65 70 73 73 81 59 77 72 77 83 78 77 104 102 84 72 56 54 61 66 68 62 54 54 50 43 44
60 59 61 63 59 59 57 56 56 53 48 46 46 49 47 51 55 67 74 77 81 87 80 82 85 84 85 84 80 90 85 71 61 54 63 70 68 58 58 61 51 50 45
66 68 66 63 62 61 62 61 63 59 60 61 56 55 57 57 62 67 71 85 92 100 104 102 87 86 94 83 78 58 79 91 82 53 65 70 61 58 62 60 56 54 51
65 68 72 76 73 68 66 64 65 64 66 68 63 62 66 65 69 67 69 80 97 101 104 95 95 98 103 82 89 87 75 65 55 49 57 54 59 58 64 57 57 50 46
81 79 77 78 81 83 79 74 69 67 66 70 70 70 72 77 77 78 81 82 90 95 102 106 99 100 98 85 84 76 68 66 55 51 55 57 58 60 58 55 45 41 38
104 103 101 99 92 86 86 87 81 72 71 72 74 75 75 84 84 88 81 89 88 99 97 96 83 90 84 78 67 61 66 66 66 63 64 59 55 52 49 47 38 37 35
94 93 95 99 103 102 96 84 82 79 74 73 74 77 85 93 101 104 93 88 87 100 95 85 81 80 66 57 62 60 64 62 60 55 49 47 49 51 49 44 38 37 36
76 79 80 75 75 82 91 89 77 79 73 70 75 82 90 101 109 111 94 87 83 94 90 90 87 69 66 61 58 55 66 57 46 46 42 41 44 46 42 40 40 40 43
60 60 64 71 77 79 69 71 70 75 67 65 71 82 93 107 109 78 65 72 73 82 74 80 77 76 78 63 49 48 51 55 53 48 45 46 48 47 45 47 48 53 49
70 75 77 71 66 63 64 55 71 62 62 61 68 82 94 98 59 52 58 59 52 48 45 68 67 64 61 52 47 48 55 53 48 44 46 48 49 49 44 44 45 42 38
72 77 77 72 70 63 54 56 57 64 56 56 66 84 73 72 52 56 36 41 51 47 34 32 31 29 44 46 55 56 53 47 39 36 38 39 41 31 34 40 39 36 38
70 64 66 66 68 67 56 55 44 48 46 54 44 38 39 40 51 27 46 47 43 30 21 28 27 32 29 35 39 39 36 35 28 22 30 35 29 22 18 29 28 30 27
Wind_Direction_500mb
253 257 260 261 262 263 265 269 273 277 277 273 270 271 269 270 267 268 268 261 258 257 258 263 262 261 270 275 277 282 278 281 280 281 285 287 287 284 282 282 281 279 281
260 262 265 267 269 272 274 275 276 275 275 275 277 275 276 272 275 274 269 265 261 261 259 260 259 256 261 270 270 277 291 278 273 271 273 273 273 275 276 278 284 284 284
266 269 273 272 273 276 275 275 276 277 277 277 275 276 275 274 274 274 274 271 264 260 258 260 260 254 258 265 264 271 280 281 265 263 265 263 265 268 270 272 274 288 290
271 274 278 283 286 282 281 279 283 282 280 279 279 278 278 277 274 273 269 267 267 265 263 259 259 256 261 265 266 270 275 280 270 263 261 259 258 261 262 266 278 281 296
274 282 282 284 286 287 286 284 280 282 284 285 286 285 282 277 276 275 272 265 264 266 267 263 259 258 261 265 268 271 270 270 271 271 266 261 257 261 267 274 268 275 302
275 276 282 286 286 283 286 286 284 281 280 282 283 284 282 281 279 274 268 268 268 266 264 266 267 266 263 267 271 270 269 273 275 271 265 258 255 263 273 276 273 284 304
278 280 282 284 286 284 282 282 282 284 286 287 288 286 284 281 279 274 270 266 269 269 266 265 267 266 269 267 265 267 271 269 273 278 266 260 258 269 275 276 279 291 303
268 273 277 280 281 281 279 284 285 284 283 285 285 284 286 290 285 285 282 276 272 272 270 269 269 268 268 267 263 263 267 273 276 277 270 261 263 274 276 276 287 298 302
281 280 282 287 289 290 289 287 284 283 284 284 283 271 275 268 290 287 289 285 286 282 278 274 273 269 269 268 268 266 262 269 273 277 273 259 266 275 271 275 287 300 304
303 303 296 294 306 309 309 300 290 282 282 279 279 278 273 269 274 289 285 283 278 275 275 277 282 278 272 270 268 267 263 266 271 275 272 264 266 272 270 275 290 297 291
307 307 310 301 300 313 312 311 300 280 274 276 272 273 274 273 274 267 272 278 280 277 276 278 273 275 277 280 284 266 267 267 267 270 272 263 266 273 273 279 288 281 287
293 293 286 295 300 303 308 306 303 298 281 274 273 269 267 265 267 265 264 269 275 268 264 266 264 267 272 268 273 280 265 267 266 265 269 263 264 274 278 280 274 278 289
286 287 284 288 295 299 309 306 301 301 298 284 274 275 270 268 271 268 265 258 262 266 270 257 265 270 271 274 262 261 268 267 261 264 263 262 265 272 275 271 262 280 289
286 283 278 282 285 290 298 303 305 295 291 292 286 276 273 272 269 263 260 254 256 257 257 253 254 255 263 250 263 261 260 269 253 252 259 257 266 269 270 258 261 276 288
279 279 272 276 279 283 286 291 294 303 303 289 288 289 277 272 270 268 263 257 251 240 247 246 255 260 263 261 260 257 256 263 250 244 251 258 265 267 258 255 265 274 280
258 259 270 276 275 280 279 282 288 292 295 299 294 289 287 281 281 272 267 263 246 246 254 256 262 262 251 267 257 261 252 254 248 243 248 257 263 251 249 254 267 276 278
259 261 259 260 268 274 276 280 282 283 285 292 295 293 291 282 281 279 261 259 257 256 254 261 255 252 248 267 253 264 252 248 253 251 251 254 244 244 246 254 267 272 278
266 265 263 263 261 259 260 267 273 276 281 282 287 291 293 292 286 281 268 259 256 258 256 248 257 259 261 263 256 259 258 255 252 250 245 239 238 238 246 257 261 270 276
269 268 268 268 267 262 260 259 261 268 269 274 281 286 289 290 283 279 268 261 258 254 255 252 253 259 266 261 266 262 248 240 241 235 233 233 235 241 247 252 257 263 265
277 275 272 270 269 267 264 263 260 262 266 269 277 283 287 289 286 282 269 258 252 249 248 247 247 252 255 258 258 246 235 233 228 228 231 233 238 240 242 244 256 255 260
284 282 280 276 271 266 260 262 260 259 264 269 278 283 287 288 288 287 273 252 244 243 242 242 245 245 237 229 234 239 221 224 219 221 224 228 238 239 235 244 248 250 263
287 284 283 282 279 272 265 254 262 261 264 272 281 285 291 293 288 284 260 242 237 238 242 240 236 223 225 219 220 217 212 208 206 214 223 229 231 230 232 237 244 255 262
293 287 285 282 282 279 272 259 255 261 264 272 283 291 289 295 290 266 241 231 231 239 246 241 233 220 219 208 204 205 203 208 212 219 220 225 233 238 241 247 251 257 258
284 282 286 287 281 281 268 272 253 260 267 274 293 293 294 288 268 249 228 223 218 218 217 223 222 229 220 204 212 217 209 214 221 223 226 231 236 240 244 250 251 251 250
286 285 282 284 281 281 273 263 267 257 269 283 296 302 298 282 263 218 177 185 191 193 174 183 184 193 202 204 210 216 218 216 217 221 228 234 240 244 244 250 251 249 240
291 290 286 280 280 282 276 262 267 259 265 278 293 320 339 231 184 179 143 117 134 103 124 128 148 165 179 189 201 209 214 214 218 232 236 236 247 239 243 243 240 233 220
Wind_Speed_850mb
46 46 47 48 49 48 49 49 51 52 54 53 54 56 52 51 49 52 49 44 45 45 44 45 40 36 32 31 28 31 32 31 32 31 29 25 24 22 20 20 21 22 23
43 44 48 50 52 53 54 55 58 60 60 59 64 63 64 58 59 55 54 55 52 53 52 50 48 43 36 36 30 32 38 37 38 36 33 31 30 27 24 22 23 24 23
39 42 45 47 50 54 57 59 61 64 66 68 69 66 65 63 63 61 61 62 62 60 61 58 51 47 44 42 40 35 34 53 45 43 38 37 35 32 30 27 25 25 26
38 42 45 49 46 48 49 55 57 60 64 67 70 71 70 70 68 65 66 66 67 65 65 65 63 58 56 56 51 45 38 55 50 51 45 42 36 37 36 34 26 24 22
37 37 43 44 45 51 56 56 58 59 63 65 67 68 68 69 71 68 66 73 74 69 65 65 70 64 63 63 60 58 58 53 54 52 50 44 43 42 39 32 31 26 26
36 39 43 47 46 49 55 57 58 62 66 69 73 73 74 70 69 70 72 73 75 78 73 71 69 67 69 69 65 61 62 56 57 54 52 49 46 42 39 33 30 32 47
38 41 45 49 50 52 54 57 60 63 64 67 69 76 77 73 75 73 74 78 78 74 77 78 76 70 73 73 66 64 61 57 58 56 57 52 44 42 44 42 46 51 62
41 47 51 51 50 51 52 46 44 54 60 59 59 60 58 68 72 68 63 71 80 79 79 78 77 74 79 77 70 63 64 61 60 60 60 59 49 50 50 51 51 56 63
30 36 42 45 46 46 50 52 52 50 51 50 48 48 35 30 50 52 50 54 64 65 66 75 79 82 79 81 78 72 69 62 61 62 61 63 58 55 52 53 53 58 66
29 32 32 35 30 37 43 47 45 50 51 52 52 54 53 63 53 51 57 51 49 54 58 58 62 61 68 82 85 83 77 70 67 63 60 61 59 54 55 57 62 67 53
26 26 30 33 38 45 46 47 46 45 47 51 51 55 56 51 55 74 65 73 64 68 61 66 67 73 69 67 62 80 85 82 74 70 66 61 56 56 62 65 68 54 51
29 31 37 39 41 47 50 48 45 46 44 48 50 55 56 59 49 54 60 67 74 75 69 62 66 78 84 79 78 64 74 83 83 76 67 64 60 59 62 65 51 49 50
37 37 39 45 45 46 45 41 40 41 45 46 46 52 57 61 59 59 66 65 66 69 75 80 78 114 101 79 84 87 78 73 74 80 64 67 64 61 61 56 47 46 42
46 46 48 50 50 47 43 33 40 43 40 43 48 52 56 60 64 64 69 74 63 70 70 65 61 65 75 120 102 84 89 82 76 73 65 68 66 63 55 54 49 45 41
54 53 56 57 55 53 51 48 44 42 41 44 46 48 55 59 65 70 73 73 81 59 77 72 77 83 78 77 104 102 84 72 56 54 61 66 68 62 54 54 50 43 44
60 59 61 63 59 59 57 56 56 53 48 46 46 49 47 51 55 67 74 77 81 87 80 82 85 84 85 84 80 90 85 71 61 54 63 70 68 58 58 61 51 50 45
66 68 66 63 62 61 62 61 63 59 60 61 56 55 57 57 62 67 71 85 92 100 104 102 87 86 94 83 78 58 79 91 82 53 65 70 61 58 62 60 56 54 51
65 68 72 76 73 68 66 64 65 64 66 68 63 62 66 65 69 67 69 80 97 101 104 95 95 98 103 82 89 87 75 65 55 49 57 54 59 58 64 57 57 50 46
81 79 77 78 81 83 79 74 69 67 66 70 70 70 72 77 77 78 81 82 90 95 102 106 99 100 98 85 84 76 68 66 55 51 55 57 58 60 58 55 45 41 38
104 103 101 99 92 86 86 87 81 72 71 72 74 75 75 84 84 88 81 89 88 99 97 96 83 90 84 78 67 61 66 66 66 63 64 59 55 52 49 47 38 37 35
94 93 95 99 103 102 96 84 82 79 74 73 74 77 85 93 101 104 93 88 87 100 95 85 81 80 66 57 62 60 64 62 60 55 49 47 49 51 49 44 38 37 36
76 79 80 75 75 82 91 89 77 79 73 70 75 82 90 101 109 111 94 87 83 94 90 90 87 69 66 61 58 55 66 57 46 46 42 41 44 46 42 40 40 40 43
60 60 64 71 77 79 69 71 70 75 67 65 71 82 93 107 109 78 65 72 73 82 74 80 77 76 78 63 49 48 51 55 53 48 45 46 48 47 45 47 48 53 49
70 75 77 71 66 63 64 55 71 62 62 61 68 82 94 98 59 52 58 59 52 48 45 68 67 64 61 52 47 48 55 53 48 44 46 48 49 49 44 44 45 42 38
72 77 77 72 70 63 54 56 57 64 56 56 66 84 73 72 52 56 36 41 51 47 34 32 31 29 44 46 55 56 53 47 39 36 38 39 41 31 34 40 39 36 38
70 64 66 66 68 67 56 55 44 48 46 54 44 38 39 40 51 27 46 47 43 30 21 28 27 32 29 35 39 39 36 35 28 22 30 35 29 22 18 29 28 30 27
Wind_Direction_850mb
253 257 260 261 262 263 265 269 273 277 277 273 270 271 269 270 267 268 268 261 258 257 258 263 262 261 270 275 277 282 278 281 280 281 285 287 287 284 282 282 281 279 281
260 262 265 267 269 272 274 275 276 275 275 275 277 275 276 272 275 274 269 265 261 261 259 260 259 256 261 270 270 277 291 278 273 271 273 273 273 275 276 278 284 284 284
266 269 273 272 273 276 275 275 276 277 277 277 275 276 275 274 274 274 274 271 264 260 258 260 260 254 258 265 264 271 280 281 265 263 265 263 265 268 270 272 274 288 290
271 274 278 283 286 282 281 279 283 282 280 279 279 278 278 277 274 273 269 267 267 265 263 259 259 256 261 265 266 270 275 280 270 263 261 259 258 261 262 266 278 281 296
274 282 282 284 286 287 286 284 280 282 284 285 286 285 282 277 276 275 272 265 264 266 267 263 259 258 261 265 268 271 270 270 271 271 266 261 257 261 267 274 268 275 302
275 276 282 286 286 283 286 286 284 281 280 282 283 284 282 281 279 274 268 268 268 266 264 266 267 266 263 267 271 270 269 273 275 271 265 258 255 263 273 276 273 284 304
278 280 282 284 286 284 282 282 282 284 286 287 288 286 284 281 279 274 270 266 269 269 266 265 267 266 269 267 265 267 271 269 273 278 266 260 258 269 275 276 279 291 303
268 273 277 280 281 281 279 284 285 284 283 285 285 284 286 290 285 285 282 276 272 272 270 269 269 268 268 267 263 263 267 273 276 277 270 261 263 274 276 276 287 298 302
281 280 282 287 289 290 289 287 284 283 284 284 283 271 275 268 290 287 289 285 286 282 278 274 273 269 269 268 268 266 262 269 273 277 273 259 266 275 271 275 287 300 304
303 303 296 294 306 309 309 300 290 282 282 279 279 278 273 269 274 289 285 283 278 275 275 277 282 278 272 270 268 267 263 266 271 275 272 264 266 272 270 275 290 297 291
307 307 310 301 300 313 312 311 300 280 274 276 272 273 274 273 274 267 272 278 280 277 276 278 273 275 277 280 284 266 267 267 267 270 272 263 266 273 273 279 288 281 287
293 293 286 295 300 303 308 306 303 298 281 274 273 269 267 265 267 265 264 269 275 268 264 266 264 267 272 268 273 280 265 267 266 265 269 263 264 274 278 280 274 278 289
286 287 284 288 295 299 309 306 301 301 298 284 274 275 270 268 271 268 265 258 262 266 270 257 265 270 271 274 262 261 268 267 261 264 263 262 265 272 275 271 262 280 289
286 283 278 282 285 290 298 303 305 295 291 292 286 276 273 272 269 263 260 254 256 257 257 253 254 255 263 250 263 261 260 269 253 252 259 257 266 269 270 258 261 276 288
279 279 272 276 279 283 286 291 294 303 303 289 288 289 277 272 270 268 263 257 251 240 247 246 255 260 263 261 260 257 256 263 250 244 251 258 265 267 258 255 265 274 280
258 259 270 276 275 280 279 282 288 292 295 299 294 289 287 281 281 272 267 263 246 246 254 256 262 262 251 267 257 261 252 254 248 243 248 257 263 251 249 254 267 276 278
259 261 259 260 268 274 276 280 282 283 285 292 295 293 291 282 281 279 261 259 257 256 254 261 255 252 248 267 253 264 252 248 253 251 251 254 244 244 246 254 267 272 278
266 265 263 263 261 259 260 267 273 276 281 282 287 291 293 292 286 281 268 259 256 258 256 248 257 259 261 263 256 259 258 255 252 250 245 239 238 238 246 257 261 270 276
269 268 268 268 267 262 260 259 261 268 269 274 281 286 289 290 283 279 268 261 258 254 255 252 253 259 266 261 266 262 248 240 241 235 233 233 235 241 247 252 257 263 265
277 275 272 270 269 267 264 263 260 262 266 269 277 283 287 289 286 282 269 258 252 249 248 247 247 252 255 258 258 246 235 233 228 228 231 233 238 240 242 244 256 255 260
284 282 280 276 271 266 260 262 260 259 264 269 278 283 287 288 288 287 273 252 244 243 242 242 245 245 237 229 234 239 221 224 219 221 224 228 238 239 235 244 248 250 263
287 284 283 282 279 272 265 254 262 261 264 272 281 285 291 293 288 284 260 242 237 238 242 240 236 223 225 219 220 217 212 208 206 214 223 229 231 230 232 237 244 255 262
293 287 285 282 282 279 272 259 255 261 264 272 283 291 289 295 290 266 241 231 231 239 246 241 233 220 219 208 204 205 203 208 212 219 220 225 233 238 241 247 251 257 258
284 282 286 287 281 281 268 272 253 260 267 274 293 293 294 288 268 249 228 223 218 218 217 223 222 229 220 204 212 217 209 214 221 223 226 231 236 240 244 250 251 251 250
286 285 282 284 281 281 273 263 267 257 269 283 296 302 298 282 263 218 177 185 191 193 174 183 184 193 202 204 210 216 218 216 217 221 228 234 240 244 244 250 251 249 240
291 290 286 280 280 282 276 262 267 259 265 278 293 320 339 231 184 179 143 117 134 103 124 128 148 165 179 189 201 209 214 214 218 232 236 236 247 239 243 243 240 233 220